Total_Precipitation_Accumulation
1.21 1.43 1.28 0.89 0.83 0.72 0.63 0.68 0.58 0.40 0.38 0.51 0.52 0.42 0.30 0.30 0.36 0.44 0.49 0.53 0.49 0.54 0.59 0.65 0.76 0.94 1.14 1.18 1.22 1.36 1.41 1.58 1.81 2.02 2.20 2.24 2.28 2.20 2.15 2.06 1.98 1.92 1.95 1.96
1.33 1.18 0.69 0.51 0.59 0.70 0.74 0.82 0.64 0.44 0.37 0.55 0.56 0.46 0.33 0.31 0.35 0.44 0.44 0.52 0.54 0.55 0.61 0.68 0.78 0.92 1.16 1.22 1.22 1.35 1.46 1.56 1.63 1.78 1.94 2.05 2.19 2.25 2.19 2.10 2.10 1.98 1.90 1.87
1.03 0.71 0.41 0.60 0.76 0.89 0.83 0.73 0.61 0.55 0.51 0.61 0.69 0.65 0.40 0.34 0.32 0.39 0.44 0.51 0.62 0.65 0.66 0.69 0.77 0.89 1.15 1.29 1.29 1.32 1.41 1.56 1.63 1.77 1.99 2.12 2.33 2.42 2.45 2.25 2.10 2.04 1.99 1.89
0.74 0.45 0.45 0.70 0.83 0.92 0.88 0.50 0.51 0.60 0.89 1.00 0.86 1.00 0.51 0.36 0.35 0.41 0.46 0.50 0.63 0.67 0.66 0.73 0.74 0.85 1.03 1.21 1.33 1.38 1.49 1.60 1.63 1.81 2.02 2.04 2.20 2.25 2.21 2.08 1.99 1.93 1.94 1.92
0.88 0.51 0.52 0.67 0.61 0.70 0.73 0.46 0.58 0.73 1.00 1.16 0.87 0.96 0.56 0.33 0.40 0.41 0.46 0.49 0.58 0.67 0.64 0.71 0.74 0.74 0.87 1.03 1.22 1.36 1.53 1.68 1.70 1.74 1.93 2.01 1.97 2.05 2.15 2.19 2.13 2.02 1.96 1.90
0.69 0.49 0.56 0.51 0.41 0.51 0.67 0.77 0.94 1.09 1.56 1.82 0.78 0.74 0.61 0.51 0.60 0.50 0.45 0.51 0.60 0.67 0.69 0.72 0.71 0.70 0.81 0.97 1.15 1.29 1.46 1.60 1.69 1.71 1.80 1.98 1.96 1.94 2.04 2.21 2.27 2.20 2.07 1.97
0.85 0.63 0.52 0.47 0.63 0.79 1.05 1.59 2.34 2.48 2.47 1.51 0.44 0.58 0.69 0.54 0.52 0.59 0.58 0.58 0.62 0.65 0.72 0.77 0.67 0.70 0.75 0.87 1.04 1.20 1.39 1.47 1.55 1.61 1.68 1.75 1.91 1.90 1.88 1.91 2.01 2.18 2.14 1.99
0.99 0.85 0.61 0.53 0.72 1.03 1.14 1.43 1.92 1.88 1.27 0.60 0.36 0.58 0.62 0.45 0.39 0.40 0.44 0.54 0.58 0.61 0.66 0.71 0.67 0.69 0.73 0.77 0.89 1.05 1.19 1.37 1.51 1.58 1.61 1.65 1.74 1.88 1.82 1.80 1.75 1.88 1.97 1.85
1.01 0.71 0.44 0.40 0.41 0.65 1.02 1.12 1.01 1.35 0.96 0.66 0.55 0.51 0.42 0.22 0.23 0.28 0.34 0.46 0.59 0.67 0.71 0.67 0.68 0.71 0.70 0.76 0.82 0.96 1.06 1.21 1.43 1.58 1.61 1.64 1.68 1.76 1.78 1.74 1.73 1.73 1.76 1.79
1.11 0.88 0.43 0.39 0.51 0.66 0.79 0.98 1.23 1.75 1.48 0.85 0.54 0.52 0.59 0.41 0.41 0.36 0.39 0.48 0.60 0.70 0.77 0.75 0.71 0.76 0.75 0.76 0.80 0.86 1.02 1.12 1.27 1.48 1.66 1.66 1.63 1.61 1.71 1.77 1.80 1.77 1.73 1.75
1.09 1.15 0.71 0.61 0.83 0.89 0.87 1.18 1.49 1.59 1.24 1.02 0.70 0.69 0.71 0.61 0.59 0.52 0.49 0.53 0.63 0.72 0.79 0.74 0.68 0.70 0.74 0.77 0.86 0.89 0.98 1.08 1.20 1.30 1.49 1.61 1.62 1.62 1.67 1.72 1.71 1.75 1.75 1.73
1.03 1.34 0.93 0.55 0.52 0.53 0.74 1.02 1.29 1.63 1.20 0.79 0.74 0.71 0.55 0.52 0.55 0.51 0.49 0.50 0.55 0.66 0.72 0.72 0.66 0.67 0.74 0.82 0.89 0.97 1.01 1.00 1.09 1.20 1.32 1.47 1.57 1.60 1.63 1.62 1.65 1.72 1.73 1.72
1.48 1.92 1.58 1.03 0.84 0.77 0.88 0.81 0.89 1.14 1.16 0.81 0.70 0.61 0.38 0.34 0.36 0.37 0.43 0.47 0.51 0.61 0.69 0.73 0.74 0.71 0.75 0.83 0.91 0.97 1.04 0.97 0.99 1.17 1.28 1.42 1.52 1.52 1.52 1.47 1.55 1.73 1.82 1.80
1.85 1.97 1.38 1.11 0.91 0.85 0.78 0.62 0.63 1.05 1.31 0.74 0.45 0.43 0.30 0.27 0.31 0.34 0.44 0.48 0.51 0.56 0.63 0.71 0.82 0.79 0.74 0.79 0.84 0.87 0.97 1.01 1.00 1.06 1.21 1.35 1.46 1.44 1.39 1.36 1.38 1.53 1.72 1.81
1.61 1.61 0.72 0.38 0.32 0.41 0.48 0.43 0.47 0.67 0.66 0.59 0.37 0.34 0.36 0.36 0.41 0.43 0.47 0.48 0.48 0.49 0.56 0.71 0.82 0.82 0.83 0.86 0.88 0.85 0.88 0.99 1.05 1.01 1.10 1.19 1.32 1.40 1.37 1.32 1.33 1.44 1.56 1.61
1.47 1.47 0.74 0.41 0.24 0.31 0.38 0.31 0.31 0.36 0.32 0.31 0.24 0.29 0.32 0.33 0.33 0.35 0.36 0.42 0.46 0.47 0.52 0.59 0.67 0.75 0.85 0.94 0.96 0.94 0.91 0.95 1.03 1.01 1.06 1.10 1.25 1.38 1.38 1.30 1.34 1.47 1.57 1.56
1.46 1.48 1.29 0.73 0.30 0.55 0.62 0.39 0.33 0.35 0.33 0.31 0.36 0.37 0.31 0.29 0.32 0.39 0.39 0.42 0.46 0.47 0.48 0.49 0.59 0.73 0.83 0.92 0.95 0.97 0.94 0.97 1.02 1.03 1.05 1.11 1.24 1.31 1.36 1.34 1.36 1.47 1.58 1.58
1.23 1.44 1.77 1.20 0.81 1.10 0.58 0.29 0.28 0.33 0.35 0.33 0.33 0.29 0.30 0.34 0.36 0.43 0.43 0.47 0.48 0.50 0.50 0.50 0.59 0.71 0.75 0.83 0.87 0.92 0.88 1.00 1.06 1.06 1.05 1.10 1.18 1.22 1.32 1.35 1.38 1.49 1.56 1.52
0.70 1.33 1.98 1.63 1.14 0.59 0.32 0.28 0.38 0.47 0.47 0.36 0.28 0.21 0.21 0.25 0.32 0.41 0.38 0.43 0.49 0.50 0.54 0.56 0.60 0.68 0.69 0.76 0.82 0.87 0.83 0.92 1.01 1.05 1.01 1.03 1.11 1.16 1.25 1.31 1.38 1.47 1.56 1.52
0.70 1.30 2.15 1.80 1.30 0.63 0.40 0.26 0.30 0.43 0.61 0.35 0.27 0.26 0.24 0.29 0.46 0.46 0.40 0.40 0.41 0.42 0.47 0.55 0.58 0.62 0.64 0.70 0.74 0.78 0.83 0.86 0.94 1.00 0.92 0.97 1.04 1.07 1.17 1.23 1.31 1.39 1.42 1.44
1.15 1.80 2.06 1.48 1.18 0.48 0.31 0.26 0.32 0.68 0.76 0.40 0.34 0.35 0.35 0.45 0.53 0.46 0.43 0.44 0.45 0.45 0.46 0.50 0.52 0.58 0.64 0.68 0.69 0.72 0.80 0.87 0.90 0.98 0.91 0.95 0.98 1.03 1.11 1.18 1.20 1.28 1.35 1.37
0.88 1.24 1.23 1.13 1.27 0.64 0.33 0.39 0.68 0.80 0.46 0.37 0.35 0.35 0.38 0.39 0.36 0.35 0.39 0.44 0.51 0.50 0.46 0.48 0.51 0.56 0.60 0.63 0.67 0.69 0.74 0.81 0.88 0.93 0.92 0.98 1.02 1.03 1.07 1.13 1.13 1.17 1.28 1.35
0.64 0.86 0.97 0.92 0.77 0.50 0.43 0.53 0.58 0.49 0.42 0.34 0.34 0.34 0.37 0.36 0.35 0.38 0.41 0.45 0.52 0.53 0.50 0.50 0.54 0.55 0.57 0.62 0.67 0.73 0.76 0.78 0.87 0.91 0.91 0.97 1.06 1.08 1.09 1.09 1.09 1.13 1.20 1.29
0.53 0.52 0.66 0.61 0.44 0.33 0.33 0.34 0.34 0.32 0.33 0.31 0.31 0.34 0.37 0.37 0.35 0.40 0.42 0.46 0.50 0.52 0.54 0.55 0.58 0.58 0.60 0.63 0.69 0.77 0.80 0.78 0.84 0.88 0.89 0.94 1.01 1.06 1.10 1.06 1.01 1.01 1.11 1.24
0.43 0.48 0.54 0.48 0.32 0.30 0.28 0.27 0.27 0.25 0.22 0.23 0.24 0.26 0.30 0.33 0.36 0.41 0.44 0.48 0.54 0.54 0.57 0.59 0.61 0.64 0.67 0.66 0.72 0.78 0.81 0.80 0.83 0.82 0.81 0.87 0.90 0.99 1.09 1.08 1.02 1.01 1.01 1.21
0.30 0.40 0.51 0.46 0.33 0.39 0.32 0.25 0.25 0.25 0.23 0.24 0.25 0.24 0.23 0.28 0.35 0.38 0.41 0.45 0.54 0.59 0.59 0.61 0.63 0.66 0.72 0.71 0.74 0.78 0.80 0.78 0.78 0.79 0.77 0.80 0.84 0.89 0.98 1.02 1.06 1.18 1.16 1.19